Location: Unspecified
(0.0000°N, 0.0000°E)
Time: 08:00:49
(UTC+00:00)

Kosmos-648 - Pass Details

Date: 10 July 2022
Orbit: 1437 x 1489 km, 74.0° (Epoch: 16 August)

Event Time Altitude Azimuth Distance (km) Brightness Sun altitude
Rises 21:11:16 0° 310° (NW) 4,604 ? -42.2°
Reaches altitude 10° 21:15:53 10° 289° (WNW) 3,624 ? -43.2°
Maximum altitude 21:20:23 15° 258° (WSW) 3,239 ? -44.1°
Drops below altitude 10° 21:24:54 10° 226° (SW) 3,616 ? -45.1°
Enters shadow 21:26:09 - 219° (SW) 3,835 ? -45.3°
